Weather History for KGNA - January, 2013

Change the Weather History Date:

Sunday, January 13, 2013

  Actual Average (KCKC) Record (KCKC)
Temperature  
Mean Temperature 12 °F -  
Max Temperature 16 °F 13 °F 30 °F (2001)
Min Temperature 8 °F 0 °F -25 °F (1999)
Degree Days  
Heating Degree Days 53    
Moisture  
Dew Point 0 °F    
Average Humidity 61    
Maximum Humidity 67    
Minimum Humidity 51    
Precipitation  
Precipitation 0.00 in - - ()
Sea Level Pressure  
Sea Level Pressure 30.06 in    
Wind  
Wind Speed 7 mph (NNW)    
Max Wind Speed 17 mph    
Max Gust Speed 30 mph    
Averages and records for this station are not official NWS values.
T = Trace of Precipitation, MM = Missing Value Source: NWS Daily Summary

Daily Weather History Graph

Daily Weather History Graph

Search for Another Location

Airport or City:

Trip Planner

Search our weather history database for the weather conditions in past years. The results will help you decide how hot, cold, wet, or windy it might be!

Date:

Astronomy

Jan. 13, 2013 Rise Set
Actual Time 7:46 AM CST 4:34 PM CST
Civil Twilight 7:11 AM CST 5:09 PM CST
Nautical Twilight 6:32 AM CST 5:47 PM CST
Astronomical Twilight 5:55 AM CST 6:25 PM CST
Moon 8:32 AM CST (1/13) 7:27 PM CST (1/13)
Length of Visible Light 9h 57m
Length of Day
8h 47m
Waxing Crescent, 5% of the Moon is Illuminated
Jan 13
Waxing Crescent
Jan 18
First Quarter
Jan 26
Full
Feb 3
Last Quarter
Feb 10
New

Hourly Weather History & Observations

Time (CST) Temp. Windchill Dew Point Humidity Pressure Visibility Wind Dir Wind Speed Gust Speed Precip Events Conditions
12:56 AM 14.0 °F 3.9 °F 1.9 °F 59% 30.01 in - Variable 6.9 mph - N/A   Unknown
1:56 AM 12.9 °F 5.2 °F 1.0 °F 59% 30.01 in - NNW 4.6 mph - N/A   Unknown
2:56 AM 12.9 °F 1.6 °F -0.9 °F 54% 30.04 in - NW 8.1 mph 19.6 mph N/A   Unknown
3:56 AM 10.9 °F -1.8 °F -0.0 °F 61% 30.04 in - North 9.2 mph - N/A   Unknown
4:56 AM 10.0 °F - -0.0 °F 64% 30.04 in - Calm Calm - N/A   Unknown
5:56 AM 8.1 °F -6.2 °F -2.0 °F 64% 30.03 in - NNW 10.4 mph 21.9 mph N/A   Unknown
6:56 AM 8.1 °F -4.3 °F -2.0 °F 64% 30.04 in - North 8.1 mph 20.7 mph N/A   Unknown
7:56 AM 8.1 °F -6.2 °F -2.0 °F 64% 30.08 in - North 10.4 mph 18.4 mph N/A   Unknown
8:56 AM 9.0 °F -6.6 °F -2.0 °F 61% 30.11 in - NNW 12.7 mph 21.9 mph N/A   Unknown
9:56 AM 10.9 °F -1.8 °F -2.0 °F 56% 30.09 in - NNW 9.2 mph 20.7 mph N/A   Unknown
10:56 AM 14.0 °F 6.5 °F -0.0 °F 54% 30.09 in - Variable 4.6 mph - N/A   Unknown
11:56 AM 16.0 °F - 1.0 °F 52% 30.04 in - Calm Calm - N/A   Unknown
12:56 PM 15.1 °F 4.2 °F -0.0 °F 51% 30.03 in - NNW 8.1 mph - N/A   Unknown
1:56 PM 12.0 °F 4.1 °F 1.0 °F 61% 30.03 in - Variable 4.6 mph - N/A   Unknown
2:56 PM 12.9 °F - 1.0 °F 59% 30.06 in - Calm Calm - N/A   Unknown
3:56 PM 12.9 °F - 3.0 °F 65% 30.06 in - Calm Calm - N/A   Unknown
4:56 PM 12.0 °F 5.9 °F 1.0 °F 61% 30.07 in - Variable 3.5 mph - N/A   Unknown
5:56 PM 12.0 °F 5.9 °F 1.9 °F 64% 30.08 in - Variable 3.5 mph - N/A   Unknown
6:56 PM 12.0 °F 4.1 °F 3.0 °F 67% 30.08 in - Variable 4.6 mph - N/A   Unknown
7:56 PM 12.9 °F 5.2 °F 3.0 °F 65% 30.07 in - Variable 4.6 mph - N/A   Unknown
8:56 PM 12.0 °F 4.1 °F 1.9 °F 64% 30.08 in - Variable 4.6 mph - N/A   Unknown
9:56 PM 10.0 °F -4.5 °F -0.0 °F 64% 30.10 in - North 11.5 mph 21.9 mph N/A   Unknown
10:56 PM 8.1 °F -7.0 °F -0.9 °F 67% 30.12 in - NNW 11.5 mph 27.6 mph N/A   Unknown
11:56 PM 8.1 °F -10.2 °F -2.0 °F 64% 30.12 in - NNW 17.3 mph 29.9 mph N/A   Unknown